Wind_Speed
23 29 24 22 22 22 22 23 25 26 27 28 27 29 30 31 32 31 30 28 24 21 18 17 17 17 17 16 15 13 12 14 14 16 15 15 15 14 14 15 15 16 16
34 32 27 24 23 22 22 23 24 25 26 27 28 27 27 27 29 29 29 24 20 19 17 16 16 15 16 16 15 13 14 14 16 16 15 15 13 13 13 14 14 14 14
37 33 29 26 24 22 23 23 23 25 23 24 26 26 25 23 24 22 22 21 18 17 16 15 15 14 15 15 17 17 17 17 16 15 13 15 14 13 14 13 14 13 14
39 35 31 28 26 24 24 24 23 22 22 23 23 23 24 21 20 21 19 20 18 16 14 13 13 14 14 14 15 18 16 16 15 14 16 15 12 12 12 13 14 14 14
39 36 32 29 29 25 25 24 23 22 22 21 20 20 20 21 19 18 19 18 17 16 14 13 14 15 14 15 16 18 18 16 15 16 15 16 16 13 12 12 13 13 13
39 36 33 31 28 26 25 24 23 22 21 21 18 18 18 19 19 18 18 18 17 16 16 15 15 16 15 17 17 20 18 17 13 10 11 14 15 15 13 12 11 11 11
36 36 34 31 28 26 24 23 23 21 21 20 19 18 18 18 18 18 18 17 17 17 15 14 15 16 17 18 18 18 14 9 10 13 12 15 14 14 14 12 11 10 11
38 34 33 31 29 26 23 22 22 21 20 19 19 18 18 18 18 18 18 17 17 16 16 15 14 14 17 17 18 17 13 6 7 15 17 15 15 15 14 14 12 11 11
37 35 31 29 27 25 24 23 22 22 21 20 19 20 19 18 17 17 17 16 16 17 16 15 13 15 16 17 17 15 11 7 9 16 15 15 15 16 15 13 12 12 11
35 35 34 30 27 26 25 24 24 23 22 20 20 19 19 17 17 16 17 17 16 17 14 15 15 15 17 17 16 13 10 7 8 16 14 15 15 14 14 14 13 14 12
29 34 36 34 31 30 28 26 25 24 22 20 19 19 18 19 18 17 18 15 17 16 15 14 15 14 15 15 13 12 10 8 5 11 15 15 15 14 14 14 14 14 14
28 30 35 37 35 32 30 28 27 25 24 24 23 21 21 20 20 18 18 15 16 15 15 14 14 14 14 15 12 11 10 9 8 9 11 15 16 16 15 15 15 14 14
33 33 34 40 37 35 32 30 29 27 26 25 23 22 21 20 19 18 18 17 16 15 16 15 14 15 15 14 11 9 8 10 8 11 10 16 17 16 17 16 16 15 15
30 33 39 40 39 37 34 32 31 28 27 26 25 23 22 22 21 20 20 21 20 19 18 16 14 15 15 12 10 9 9 9 9 13 17 15 19 17 17 17 17 17 15
30 32 36 41 41 39 36 34 32 31 29 27 27 25 24 24 23 22 21 21 21 20 19 17 15 15 15 13 11 9 6 5 7 8 10 15 20 18 17 16 17 18 16
35 35 38 40 42 41 38 37 35 32 30 28 26 27 26 25 23 22 21 20 19 19 18 18 18 16 15 13 13 11 7 6 4 6 8 15 16 15 15 15 15 16 17
38 39 41 42 42 41 40 38 36 34 31 30 28 27 27 26 24 21 24 22 20 19 18 18 17 16 15 15 16 14 11 10 10 7 11 16 14 14 16 16 16 15 16
33 35 40 41 41 42 41 39 37 35 33 31 30 29 28 27 26 23 24 22 20 19 18 18 19 17 15 15 15 15 13 13 15 14 15 16 17 19 19 20 20 19 17
35 34 34 38 42 42 40 38 37 35 34 32 30 29 28 27 27 27 25 24 22 21 21 20 19 18 17 17 16 15 16 14 18 17 17 20 19 18 21 23 21 21 19
36 37 38 36 38 42 38 36 35 35 33 32 31 30 28 29 29 28 28 26 25 24 22 23 23 21 21 21 21 19 18 16 17 19 18 17 22 23 22 22 24 25 23
35 36 39 37 38 38 35 32 30 31 34 33 32 30 29 30 30 30 29 30 29 29 28 27 26 24 22 15 13 14 17 18 19 20 18 20 22 24 23 23 24 26 26
36 38 39 40 39 40 35 36 29 31 32 36 34 33 31 31 31 31 31 31 30 30 28 28 28 26 24 22 8 2 2 12 24 27 27 24 24 24 26 25 24 26 26
37 43 42 43 40 40 33 30 27 26 25 33 35 34 33 34 32 32 31 32 31 30 31 30 29 30 23 20 22 9 2 4 2 9 22 29 28 27 28 27 27 26 26
15 15 20 26 32 36 35 30 34 32 26 28 31 38 36 35 37 34 33 32 32 32 31 29 27 30 27 22 16 23 17 4 3 3 4 9 13 23 28 29 30 29 28
19 23 23 20 19 22 22 24 28 28 27 27 28 33 33 35 37 36 36 34 33 33 33 33 30 31 29 26 26 16 25 19 12 3 4 7 12 14 14 11 16 21 22
16 19 21 22 21 20 23 28 27 27 27 29 31 30 33 34 35 34 34 36 36 35 34 34 32 31 30 29 30 27 20 8 12 10 6 9 9 23 20 19 19 19 19
Wind_Direction
178 168 161 153 144 138 131 128 125 124 125 126 127 130 132 132 132 134 134 137 134 131 128 124 122 125 122 125 124 119 115 123 122 117 119 121 120 120 123 117 119 124 114
164 167 165 157 148 143 136 131 131 128 128 129 129 130 136 136 135 134 137 136 136 137 132 130 126 128 125 124 122 126 125 128 120 123 125 124 123 126 129 129 128 125 125
164 167 166 162 152 146 143 140 138 135 132 131 132 132 134 137 139 141 144 144 143 145 136 133 132 132 127 123 124 127 131 132 129 127 134 137 131 122 129 131 125 126 124
167 168 168 168 159 154 152 149 145 140 138 139 137 136 134 133 138 141 143 148 151 149 144 140 138 136 130 127 131 133 136 139 138 137 139 151 133 135 134 126 134 129 131
167 170 171 170 164 162 159 155 152 149 145 142 141 140 140 137 137 138 151 149 153 154 148 143 139 138 136 131 132 135 137 138 142 141 141 148 151 146 140 139 137 138 138
168 170 169 171 167 165 165 163 159 156 151 147 146 146 148 144 143 146 149 152 154 153 150 151 144 141 138 137 134 138 140 137 136 150 156 157 156 150 146 145 144 148 146
168 170 171 173 172 171 171 168 166 162 160 153 153 155 155 153 149 151 151 155 155 157 155 155 149 146 145 145 143 144 150 163 194 191 179 170 159 157 155 155 158 151 153
169 170 172 175 176 176 174 174 171 167 165 162 159 163 160 160 155 154 150 157 159 163 163 163 160 155 151 155 151 147 145 147 175 186 182 178 167 162 163 167 167 166 159
168 170 170 174 176 178 177 176 175 171 169 172 169 166 167 162 157 160 159 162 159 165 167 170 171 162 154 157 159 158 152 152 165 175 184 184 178 175 173 177 176 174 167
168 170 171 173 173 174 176 179 176 175 174 179 170 170 170 167 164 166 168 166 168 168 169 170 168 168 161 165 166 164 157 162 184 194 200 197 190 190 185 182 178 173 175
172 174 176 176 177 178 176 177 177 177 177 176 177 177 173 175 172 172 172 170 173 171 172 175 174 171 169 168 171 164 171 170 189 192 209 211 204 199 194 191 188 185 189
178 182 179 182 181 180 178 174 180 180 182 180 178 178 180 177 177 178 174 175 178 174 178 181 180 175 174 170 176 177 185 183 193 207 230 222 215 207 208 209 203 199 198
186 182 185 185 185 181 181 179 182 182 184 183 183 183 182 179 180 181 179 180 182 184 183 190 186 183 182 179 185 191 192 200 215 225 256 224 217 216 211 217 213 210 207
184 187 189 189 187 185 185 185 184 186 189 188 187 188 186 185 184 186 185 184 189 189 192 194 196 197 193 188 189 183 183 217 248 258 253 228 213 220 215 218 221 219 218
186 189 191 191 191 189 188 189 190 191 194 195 193 193 192 190 190 190 192 191 195 195 199 199 201 204 204 200 198 204 203 237 264 268 199 211 214 220 221 223 224 222 227
189 189 192 193 195 192 192 193 194 196 197 199 200 200 199 198 197 199 197 198 201 205 206 207 204 205 210 212 220 221 222 230 219 236 203 206 217 224 227 230 234 234 232
192 190 192 196 197 197 196 198 198 200 202 203 206 204 204 203 204 209 207 208 210 212 215 215 214 217 220 222 229 229 233 235 233 245 217 210 213 223 231 233 235 242 249
190 192 194 195 198 200 200 201 203 203 204 208 207 207 208 208 211 212 210 211 210 215 219 219 218 222 228 231 236 237 240 245 233 235 228 220 228 227 231 233 236 236 243
191 192 195 194 197 200 202 204 205 208 208 210 212 213 213 213 215 216 216 217 211 215 217 218 220 225 234 244 248 260 249 248 233 232 235 233 232 233 236 238 238 241 241
191 193 197 196 199 199 201 204 206 209 211 213 213 215 217 218 219 218 220 222 217 219 226 225 225 230 235 244 249 261 249 251 243 242 247 246 243 243 242 246 245 244 248
193 191 193 195 200 195 193 193 199 201 209 213 218 219 218 219 221 221 222 223 225 224 226 225 226 232 234 230 227 238 241 248 251 253 257 257 252 251 248 252 253 252 254
192 193 194 197 198 199 197 194 198 200 208 214 217 223 224 223 224 222 221 221 222 221 225 229 230 231 237 237 210 174 303 271 260 258 257 260 259 257 254 254 259 261 258
195 195 195 195 198 198 201 194 194 199 205 211 216 222 226 229 228 223 221 221 222 222 225 226 231 222 221 222 221 198 139 226 302 252 249 250 256 253 253 255 258 260 260
195 210 213 206 200 200 197 196 190 191 201 205 210 219 226 227 229 228 225 224 224 225 226 227 230 227 226 226 224 226 230 209 190 313 256 245 252 254 256 260 259 254 256
187 190 193 204 212 208 215 213 205 195 205 205 205 216 219 223 226 230 228 228 229 230 231 233 231 228 229 234 232 219 229 231 237 187 264 271 264 261 271 277 273 254 245
149 169 175 184 199 209 214 212 222 223 202 201 203 207 214 219 222 228 230 231 233 235 236 234 231 232 231 234 239 235 228 208 222 215 237 253 257 279 276 277 271 266 264
Height
765 769 773 778 780 781 783 786 786 788 789 792 795 797 798 800 800 804 806 809 812 815 817 819 821 823 824 826 826 826 827 828 830 830 832 834 835 836 837 837 838 839 840
758 767 772 777 780 782 784 786 788 790 791 794 796 799 802 803 803 805 807 811 814 816 819 820 821 824 826 827 827 828 830 831 832 834 835 837 838 839 840 839 840 841 842
759 766 771 775 779 783 785 788 791 792 793 796 798 800 803 806 806 809 810 812 816 818 819 821 822 825 826 828 829 831 833 835 835 837 838 839 840 841 842 842 842 843 844
759 765 770 775 778 782 786 789 792 794 795 797 799 802 803 806 809 809 813 815 818 820 821 822 823 825 827 829 831 832 835 837 838 839 840 841 842 843 844 844 845 846 847
759 764 770 775 778 782 785 788 792 794 796 798 800 802 804 807 810 811 815 816 819 821 822 824 825 826 827 830 832 834 837 839 840 841 842 842 843 844 845 846 847 848 849
759 764 769 775 778 782 785 788 791 794 796 798 801 803 805 807 809 812 815 817 819 821 823 825 826 827 829 831 833 835 839 841 843 843 843 844 844 845 847 848 850 850 851
761 764 769 775 779 782 785 787 790 793 796 798 801 805 807 809 810 813 815 817 819 821 824 826 827 829 830 832 835 837 840 842 843 844 845 845 845 846 848 850 851 852 853
759 765 769 773 778 782 785 788 790 793 796 799 801 805 808 810 812 813 815 818 819 822 824 826 828 830 830 833 835 838 840 841 841 843 845 846 846 847 848 851 852 852 854
760 764 769 774 778 782 785 788 791 793 796 799 801 804 808 810 812 814 815 818 820 822 824 826 829 831 831 834 836 838 840 841 842 844 845 847 848 848 849 850 852 853 854
759 763 767 773 778 781 785 788 790 794 796 799 801 804 807 810 812 815 817 818 820 822 824 827 829 831 832 835 837 838 840 842 844 845 846 847 849 850 850 850 851 853 855
761 762 766 770 775 779 783 787 791 794 796 798 802 805 807 809 812 814 816 818 820 822 825 827 829 832 833 836 838 839 840 843 844 845 846 848 849 850 851 851 852 852 854
758 761 763 767 772 778 782 785 789 793 795 798 800 804 806 808 811 813 815 819 820 822 825 827 829 831 833 835 837 839 840 842 844 845 846 847 848 850 852 852 852 853 854
753 758 762 764 769 773 779 783 787 790 793 796 799 802 805 807 810 812 814 818 820 822 825 827 828 830 832 834 837 838 839 841 842 844 844 845 846 848 851 851 852 852 853
752 756 759 763 766 771 775 781 785 788 791 794 797 801 804 806 809 811 814 816 819 821 823 825 827 830 832 834 836 838 838 839 840 841 841 843 845 846 848 849 851 852 852
749 753 757 761 764 767 771 777 783 786 790 793 796 799 802 805 808 810 812 815 817 819 821 823 825 829 831 833 836 837 838 838 838 837 838 841 844 845 846 847 849 851 852
741 746 753 757 761 764 768 772 778 783 787 791 795 797 800 803 806 809 811 813 816 818 820 822 824 827 830 832 835 836 837 837 837 837 838 840 843 845 846 847 848 850 850
734 740 745 753 758 761 764 769 773 778 784 788 792 796 799 802 805 807 810 812 815 817 820 821 823 824 827 830 832 834 835 836 836 837 837 839 841 843 845 845 846 848 849
735 738 742 747 754 758 761 765 770 775 779 784 788 793 796 800 803 805 807 809 813 816 818 820 822 823 824 828 830 831 833 834 835 835 836 837 839 841 842 843 844 845 845
732 737 743 746 748 754 758 763 766 771 775 779 784 789 793 796 799 802 805 807 810 812 815 817 819 821 823 825 826 828 830 830 831 832 833 835 836 837 838 840 840 841 841
727 732 738 743 747 750 756 761 764 767 772 776 780 784 789 793 796 798 802 804 807 810 813 815 817 820 821 823 825 826 827 828 829 829 830 832 833 834 834 835 837 838 837
722 726 731 738 742 746 749 754 759 762 766 771 776 780 783 788 792 795 797 801 804 807 809 813 815 817 818 820 823 825 824 825 825 825 827 827 828 830 830 830 831 832 833
715 720 724 730 736 741 743 746 753 758 762 767 771 775 779 783 787 791 793 797 800 803 806 810 813 815 816 818 821 823 825 823 820 821 822 823 823 825 825 825 826 826 827
708 707 714 719 729 735 742 746 750 756 760 763 765 769 774 779 781 785 789 792 796 800 802 804 807 810 812 816 817 819 824 823 817 815 815 817 818 819 820 820 821 822 822
714 726 733 733 731 734 738 743 742 745 751 754 758 763 768 773 777 781 785 788 791 795 797 799 802 804 807 810 814 814 814 814 817 817 812 812 813 813 814 815 815 815 816
708 714 722 732 738 741 749 752 748 743 747 752 756 760 764 768 773 776 779 783 787 789 793 796 798 799 802 805 806 807 808 811 813 815 815 811 810 809 810 810 810 810 810
706 712 717 722 729 737 741 743 750 752 743 747 751 755 760 764 768 771 774 778 781 783 786 790 793 796 798 799 801 802 804 806 807 811 812 810 809 806 807 807 807 807 806